TimeEDT,TemperatureF,Dew PointF,Humidity,Sea Level PressureIn,VisibilityMPH,Wind Direction,Wind SpeedMPH,Gust SpeedMPH,PrecipitationIn,Events,Conditions,WindDirDegrees,DateUTC
12:15 AM,42.8,32.0,66,29.62,10.0,SSW,3.5,-,N/A,,Clear,210,2012-10-31 04:15:00
12:35 AM,42.8,33.8,70,29.61,10.0,SW,4.6,-,N/A,,Clear,230,2012-10-31 04:35:00
12:55 AM,42.8,33.8,70,29.62,10.0,SW,5.8,-,N/A,,Clear,230,2012-10-31 04:55:00
1:15 AM,42.8,33.8,70,29.62,10.0,SSW,3.5,-,N/A,,Clear,210,2012-10-31 05:15:00
1:35 AM,39.2,33.8,81,29.63,10.0,SW,3.5,-,N/A,,Clear,220,2012-10-31 05:35:00
1:55 AM,39.2,33.8,81,29.63,10.0,Calm,Calm,-,N/A,,Clear,0,2012-10-31 05:55:00
2:15 AM,37.4,33.8,87,29.63,10.0,SSW,3.5,-,N/A,,Clear,200,2012-10-31 06:15:00
2:35 AM,39.2,33.8,81,29.63,10.0,SSW,3.5,-,N/A,,Clear,210,2012-10-31 06:35:00
2:55 AM,39.2,33.8,81,29.63,10.0,SW,4.6,-,N/A,,Clear,220,2012-10-31 06:55:00
3:15 AM,37.4,33.8,87,29.64,10.0,SSW,4.6,-,N/A,,Clear,210,2012-10-31 07:15:00
3:35 AM,37.4,33.8,87,29.64,10.0,SSW,4.6,-,N/A,,Clear,210,2012-10-31 07:35:00
3:55 AM,39.2,33.8,81,29.64,10.0,SW,4.6,-,N/A,,Clear,220,2012-10-31 07:55:00
4:15 AM,39.2,33.8,81,29.65,10.0,SW,4.6,-,N/A,,Clear,220,2012-10-31 08:15:00
4:35 AM,37.4,33.8,87,29.65,10.0,SSW,3.5,-,N/A,,Clear,210,2012-10-31 08:35:00
4:55 AM,37.4,33.8,87,29.67,10.0,SSW,5.8,-,N/A,,Clear,200,2012-10-31 08:55:00
5:15 AM,37.4,33.8,87,29.67,10.0,SSW,4.6,-,N/A,,Clear,210,2012-10-31 09:15:00
5:35 AM,37.4,33.8,87,29.67,10.0,SW,3.5,-,N/A,,Clear,220,2012-10-31 09:35:00
5:55 AM,37.4,33.8,87,29.68,10.0,SW,4.6,-,N/A,,Clear,230,2012-10-31 09:55:00
6:15 AM,37.4,33.8,87,29.68,10.0,SW,3.5,-,N/A,,Clear,220,2012-10-31 10:15:00
6:35 AM,37.4,33.8,87,29.69,10.0,SW,3.5,-,N/A,,Clear,220,2012-10-31 10:35:00
6:55 AM,37.4,33.8,87,29.68,10.0,SW,3.5,-,N/A,,Clear,230,2012-10-31 10:55:00
7:15 AM,37.4,33.8,87,29.69,10.0,Calm,Calm,-,N/A,,Clear,0,2012-10-31 11:15:00
7:35 AM,37.4,33.8,87,29.69,10.0,Calm,Calm,-,N/A,,Clear,0,2012-10-31 11:35:00
7:55 AM,35.6,33.8,93,29.69,10.0,Calm,Calm,-,N/A,,Clear,0,2012-10-31 11:55:00
8:15 AM,37.4,33.8,87,29.70,10.0,Calm,Calm,-,N/A,,Clear,0,2012-10-31 12:15:00
8:35 AM,41.0,35.6,81,29.71,10.0,WSW,3.5,-,N/A,,Clear,240,2012-10-31 12:35:00
8:55 AM,42.8,35.6,76,29.71,10.0,WSW,3.5,-,N/A,,Clear,250,2012-10-31 12:55:00
9:15 AM,42.8,35.6,76,29.72,10.0,WSW,4.6,-,N/A,,Clear,250,2012-10-31 13:15:00
9:35 AM,44.6,35.6,71,29.72,10.0,West,5.8,-,N/A,,Clear,260,2012-10-31 13:35:00
9:55 AM,46.4,35.6,66,29.71,10.0,West,6.9,-,N/A,,Clear,260,2012-10-31 13:55:00
10:15 AM,50.0,35.6,58,29.71,10.0,West,4.6,-,N/A,,Clear,260,2012-10-31 14:15:00
10:35 AM,50.0,35.6,58,29.70,10.0,WSW,8.1,-,N/A,,Clear,250,2012-10-31 14:35:00
10:55 AM,51.8,35.6,54,29.70,10.0,West,8.1,-,N/A,,Clear,270,2012-10-31 14:55:00
11:15 AM,51.8,35.6,54,29.70,10.0,West,6.9,-,N/A,,Clear,270,2012-10-31 15:15:00
11:35 AM,51.8,33.8,50,29.69,10.0,WNW,8.1,-,N/A,,Clear,290,2012-10-31 15:35:00
11:55 AM,51.8,33.8,50,29.69,10.0,WSW,6.9,-,N/A,,Clear,250,2012-10-31 15:55:00
12:15 PM,53.6,33.8,47,29.69,10.0,WSW,9.2,-,N/A,,Clear,250,2012-10-31 16:15:00
12:35 PM,53.6,33.8,47,29.68,10.0,West,6.9,-,N/A,,Clear,270,2012-10-31 16:35:00
12:55 PM,53.6,33.8,47,29.68,10.0,SW,8.1,-,N/A,,Scattered Clouds,230,2012-10-31 16:55:00
1:15 PM,53.6,33.8,47,29.68,10.0,West,6.9,-,N/A,,Scattered Clouds,260,2012-10-31 17:15:00
1:35 PM,55.4,33.8,44,29.67,10.0,West,8.1,-,N/A,,Mostly Cloudy,270,2012-10-31 17:35:00
1:55 PM,55.4,33.8,44,29.67,10.0,West,12.7,20.7,N/A,,Scattered Clouds,270,2012-10-31 17:55:00
2:15 PM,55.4,33.8,44,29.67,10.0,WNW,5.8,20.7,N/A,,Scattered Clouds,300,2012-10-31 18:15:00
2:35 PM,53.6,35.6,51,29.67,10.0,West,6.9,-,N/A,,Mostly Cloudy,280,2012-10-31 18:35:00
2:55 PM,55.4,35.6,47,29.67,10.0,WNW,4.6,-,N/A,,Mostly Cloudy,290,2012-10-31 18:55:00
3:15 PM,53.6,35.6,51,29.67,10.0,West,8.1,-,N/A,,Overcast,260,2012-10-31 19:15:00
3:35 PM,53.6,35.6,51,29.67,10.0,WSW,5.8,-,N/A,,Overcast,250,2012-10-31 19:35:00
3:55 PM,55.4,35.6,47,29.67,10.0,West,9.2,-,N/A,,Overcast,260,2012-10-31 19:55:00
4:15 PM,55.4,35.6,47,29.67,10.0,WSW,8.1,18.4,N/A,,Overcast,250,2012-10-31 20:15:00
4:35 PM,53.6,35.6,51,29.68,10.0,West,5.8,-,N/A,,Overcast,260,2012-10-31 20:35:00
4:55 PM,53.6,35.6,51,29.69,10.0,West,5.8,-,N/A,,Overcast,260,2012-10-31 20:55:00
5:15 PM,53.6,35.6,51,29.69,10.0,West,6.9,-,N/A,,Overcast,270,2012-10-31 21:15:00
5:35 PM,53.6,35.6,51,29.70,10.0,West,8.1,-,N/A,,Overcast,260,2012-10-31 21:35:00
5:55 PM,53.6,35.6,51,29.71,10.0,West,3.5,-,N/A,,Overcast,280,2012-10-31 21:55:00
6:15 PM,51.8,35.6,54,29.71,10.0,Calm,Calm,-,N/A,,Overcast,0,2012-10-31 22:15:00
6:35 PM,51.8,35.6,54,29.72,10.0,Calm,Calm,-,N/A,,Overcast,0,2012-10-31 22:35:00
6:55 PM,51.8,37.4,58,29.72,10.0,Calm,Calm,-,N/A,,Overcast,0,2012-10-31 22:55:00
7:15 PM,50.0,39.2,66,29.73,10.0,Calm,Calm,-,N/A,,Overcast,0,2012-10-31 23:15:00
7:35 PM,50.0,39.2,66,29.74,10.0,Calm,Calm,-,N/A,,Overcast,0,2012-10-31 23:35:00
7:55 PM,51.8,37.4,58,29.74,10.0,West,4.6,-,N/A,,Overcast,270,2012-10-31 23:55:00
8:15 PM,51.8,35.6,54,29.75,10.0,West,5.8,-,N/A,,Overcast,270,2012-11-01 00:15:00
8:35 PM,51.8,35.6,54,29.76,10.0,West,5.8,-,N/A,,Overcast,280,2012-11-01 00:35:00
8:55 PM,50.0,35.6,58,29.76,10.0,West,3.5,-,N/A,,Overcast,260,2012-11-01 00:55:00
9:15 PM,50.0,35.6,58,29.77,10.0,West,3.5,-,N/A,,Overcast,260,2012-11-01 01:15:00
9:35 PM,50.0,35.6,58,29.77,10.0,West,3.5,-,N/A,,Overcast,260,2012-11-01 01:35:00
9:55 PM,50.0,35.6,58,29.77,10.0,Calm,Calm,-,N/A,,Overcast,0,2012-11-01 01:55:00
10:15 PM,48.2,35.6,62,29.78,10.0,West,3.5,-,N/A,,Overcast,260,2012-11-01 02:15:00
10:35 PM,48.2,35.6,62,29.77,10.0,Calm,Calm,-,N/A,,Overcast,0,2012-11-01 02:35:00
10:55 PM,48.2,35.6,62,29.77,10.0,Calm,Calm,-,N/A,,Overcast,0,2012-11-01 02:55:00
11:15 PM,48.2,35.6,62,29.77,10.0,Calm,Calm,-,N/A,,Overcast,0,2012-11-01 03:15:00
11:35 PM,48.2,33.8,58,29.77,10.0,Calm,Calm,-,N/A,,Overcast,0,2012-11-01 03:35:00
11:55 PM,50.0,33.8,54,29.77,10.0,Calm,Calm,-,N/A,,Overcast,0,2012-11-01 03:55:00